DW7854 Weather Reports


Display with metric or nautical units.
time (UTC)temp
F
wind
direction
speed
MPH
gust
MPH
rain 1hr
in
rain 24hr
in
rain mn
in
humidity
%
barometer
mb
20240303201239 73 166 9.0 18.0 0.00 0.00 0.00 69 1010.9
20240303200339 73 138 8.0 14.0 0.00 0.00 0.00 72 1011.0
20240303200005 72 144 7.0 15.0 0.00 0.00 0.00 71 1011.3
20240303195439 72 157 8.0 15.0 0.00 0.00 0.00 73 1011.0
20240303194605 72 199 9.0 15.0 0.00 0.00 0.00 70 1011.5
20240303194539 73 157 8.0 15.0 0.00 0.00 0.00 70 1011.3
20240303193103 71 137 6.0 13.0 0.00 0.00 0.00 72 1011.6
20240303192739 72 163 10.0 15.0 0.00 0.00 0.00 71 1011.4
20240303191839 72 159 7.0 18.0 0.00 0.00 0.00 72 1011.6
20240303191635 71 144 5.0 12.0 0.00 0.00 0.00 72 1011.8
20240303190939 72 170 8.0 16.0 0.00 0.00 0.00 70 1011.7
20240303190104 71 133 7.0 16.0 0.00 0.00 0.00 71 1012.0
20240303190039 72 171 8.0 15.0 0.00 0.00 0.00 71 1011.8
20240303185139 72 162 9.0 21.0 0.00 0.00 0.00 71 1011.9
20240303184604 71 170 7.0 15.0 0.00 0.00 0.00 71 1012.2
20240303184239 72 161 10.0 15.0 0.00 0.00 0.00 71 1012.1
20240303183339 71 160 9.0 15.0 0.00 0.00 0.00 71 1012.3
20240303183104 71 169 8.0 15.0 0.00 0.00 0.00 73 1012.6
20240303182439 71 169 9.0 19.0 0.00 0.00 0.00 72 1012.5
20240303181608 70 181 11.0 19.0 0.00 0.00 0.00 72 1012.7
20240303181539 71 181 10.0 19.0 0.00 0.00 0.00 72 1012.4
20240303180016 71 185 8.0 17.0 0.00 0.00 0.00 72 1012.8
20240303175739 72 163 11.0 19.0 0.00 0.00 0.00 72 1012.6
20240303174839 70 163 10.0 17.0 0.00 0.00 0.00 71 1012.8
20240303174603 70 171 11.0 17.0 0.00 0.00 0.00 71 1013.1
20240303173939 70 161 10.0 17.0 0.00 0.00 0.00 72 1012.9
20240303173039 70 168 10.0 14.0 0.00 0.00 0.00 75 1013.0
20240303173010 70 142 9.0 14.0 0.00 0.00 0.00 76 1013.2
20240303172139 70 170 10.0 17.0 0.00 0.00 0.00 76 1013.1
20240303171504 69 170 10.0 16.0 0.00 0.00 0.00 75 1013.5
20240303170339 69 160 8.0 17.0 0.00 0.00 0.00 76 1013.2
20240303170009 69 167 9.0 15.0 0.00 0.00 0.00 76 1013.4
20240303165439 69 169 7.0 12.0 0.00 0.00 0.00 79 1013.1
20240303164604 67 168 5.0 10.0 0.00 0.00 0.00 81 1013.5
20240303164539 68 146 6.0 10.0 0.00 0.00 0.00 81 1013.2
20240303163110 67 162 4.0 11.0 0.00 0.00 0.00 80 1013.7
20240303162739 68 157 7.0 10.0 0.00 0.00 0.00 80 1013.5
20240303161839 68 166 8.0 14.0 0.00 0.00 0.00 79 1013.5
20240303161603 67 179 6.0 14.0 0.00 0.00 0.00 79 1013.8
20240303160039 67 154 4.0 10.0 0.00 0.00 0.00 79 1013.3
20240303160004 67 154 6.0 10.0 0.00 0.00 0.00 79 1013.6
20240303155139 66 117 3.0 6.0 0.00 0.00 0.00 84 1013.4
20240303154605 64 84 2.0 5.0 0.00 0.00 0.00 86 1013.7
20240303154239 63 110 2.0 6.0 0.00 0.00 0.00 88 1013.5
20240303153339 62 119 3.0 8.0 0.00 0.00 0.00 89 1013.7
20240303153008 61 130 2.0 8.0 0.00 0.00 0.00 89 1014.1
20240303152439 62 125 2.0 5.0 0.00 0.00 0.00 89 1013.8
20240303151616 61 73 1.0 5.0 0.00 0.00 0.00 90 1014.2
20240303151539 61 99 1.0 5.0 0.00 0.00 0.00 90 1013.8
20240303150639 60 110 1.0 7.0 0.00 0.00 0.00 91 1013.8
20240303150104 60 95 0.0 6.0 0.00 0.00 0.00 91 1014.1
20240303145739 60 72 1.0 5.0 0.00 0.00 0.00 91 1013.8
20240303144839 59 47 1.0 5.0 0.00 0.00 0.00 91 1013.8
20240303144603 59 41 1.0 3.0 0.00 0.00 0.00 91 1014.1
20240303143939 59 55 1.0 3.0 0.00 0.00 0.00 91 1013.7
20240303143004 58 49 1.0 4.0 0.00 0.00 0.00 91 1014.0
20240303142139 58 74 1.0 3.0 0.00 0.00 0.00 91 1013.6
20240303141515 58 133 0.0 3.0 0.00 0.00 0.00 91 1013.9
20240303140339 58 44 1.0 2.0 0.00 0.00 0.00 91 1013.6
20240303140006 57 61 0.0 3.0 0.00 0.00 0.00 91 1014.0
20240303135439 58 78 1.0 3.0 0.00 0.00 0.00 91 1013.5
20240303134603 57 80 0.0 4.0 0.00 0.00 0.00 91 1013.9
20240303134539 57 57 1.0 4.0 0.00 0.00 0.00 91 1013.5
20240303133639 57 55 2.0 4.0 0.00 0.00 0.00 91 1013.4
20240303133006 56 63 1.0 4.0 0.00 0.00 0.00 91 1013.8
20240303132739 57 57 2.0 4.0 0.00 0.00 0.00 91 1013.4
20240303131839 57 54 2.0 3.0 0.00 0.00 0.00 91 1013.5
20240303131504 56 54 1.0 3.0 0.00 0.00 0.00 91 1013.9
20240303130939 57 47 0.0 2.0 0.00 0.00 0.00 91 1013.5
20240303130106 56 24 0.0 0.0 0.00 0.00 0.00 91 1013.9
20240303130039 57 0 0.0 0.0 0.00 0.00 0.00 91 1013.5
20240303125139 57 39 0.0 1.0 0.00 0.00 0.00 91 1013.4
20240303124616 56 38 0.0 2.0 0.00 0.00 0.00 91 1013.7
20240303124239 57 45 1.0 2.0 0.00 0.00 0.00 91 1013.3
20240303123103 56 30 0.0 0.0 0.00 0.00 0.00 91 1013.5
20240303122439 57 56 0.0 2.0 0.00 0.00 0.00 90 1013.0
20240303121603 56 55 1.0 3.0 0.00 0.00 0.00 90 1013.4
20240303120639 57 44 2.0 4.0 0.00 0.00 0.00 90 1012.9
20240303120103 57 37 1.0 3.0 0.00 0.00 0.00 91 1013.3
20240303115739 57 30 1.0 3.0 0.00 0.00 0.00 90 1012.9
20240303114839 57 63 1.0 2.0 0.00 0.00 0.00 90 1012.7
20240303114618 57 55 0.0 3.0 0.00 0.00 0.00 90 1013.1
20240303113939 57 72 1.0 3.0 0.00 0.00 0.00 90 1012.6
20240303113039 57 74 1.0 2.0 0.00 0.00 0.00 90 1012.5
20240303113005 56 71 1.0 2.0 0.00 0.00 0.00 90 1012.9
20240303111504 56 43 1.0 2.0 0.00 0.00 0.00 90 1012.8
20240303111238 56 57 1.0 2.0 0.00 0.00 0.00 90 1012.5
20240303110339 56 44 1.0 2.0 0.00 0.00 0.00 90 1012.5
20240303110009 56 45 0.0 2.0 0.00 0.00 0.00 89 1012.9
20240303105439 56 28 1.0 2.0 0.00 0.00 0.00 89 1012.6
20240303104539 56 0 0.0 0.0 0.00 0.00 0.00 89 1012.6
20240303104508 56 44 0.0 0.0 0.00 0.00 0.00 89 1013.0
20240303103639 56 42 0.0 2.0 0.00 0.00 0.00 90 1012.6
20240303103005 55 42 1.0 2.0 0.00 0.00 0.00 90 1013.0
20240303101839 55 64 1.0 6.0 0.00 0.00 0.00 90 1012.4
20240303101604 54 61 1.0 6.0 0.00 0.00 0.00 90 1012.8
20240303100112 54 24 0.0 2.0 0.00 0.00 0.00 90 1012.7
20240303100038 54 53 0.0 2.0 0.00 0.00 0.00 90 1012.2
20240303094504 54 26 0.0 3.0 0.00 0.01 0.00 91 1012.6
20240303094238 54 21 1.0 2.0 0.00 0.01 0.00 91 1012.2
20240303093338 54 12 2.0 3.0 0.00 0.01 0.00 91 1012.1
20240303093006 53 13 2.0 3.0 0.00 0.01 0.00 91 1012.6
20240303092439 53 29 2.0 3.0 0.00 0.01 0.00 89 1012.0
20240303091511 53 31 1.0 3.0 0.00 0.01 0.00 87 1012.4
20240303090638 56 64 1.0 3.0 0.00 0.01 0.00 87 1012.1
20240303090104 55 53 1.0 3.0 0.00 0.01 0.00 87 1012.6
20240303084838 56 46 1.0 3.0 0.00 0.01 0.00 88 1012.2
20240303084604 55 58 1.0 3.0 0.00 0.01 0.00 86 1012.6
20240303083112 56 37 1.0 2.0 0.00 0.01 0.00 85 1012.6
20240303083038 57 61 1.0 3.0 0.00 0.01 0.00 85 1012.1
20240303082138 57 94 1.0 3.0 0.00 0.01 0.00 84 1012.2
20240303081504 57 109 1.0 3.0 0.00 0.01 0.00 83 1012.6
20240303081238 58 89 2.0 3.0 0.00 0.01 0.00 83 1012.2
20240303080339 58 123 2.0 4.0 0.00 0.01 0.00 82 1012.1
20240303080105 58 122 2.0 5.0 0.00 0.01 0.00 82 1012.6
20240303075439 58 122 2.0 6.0 0.00 0.01 0.00 82 1012.3
20240303074538 58 129 2.0 7.0 0.00 0.01 0.00 81 1012.2
20240303074508 58 128 1.0 7.0 0.00 0.01 0.00 82 1012.7
20240303073638 58 130 3.0 6.0 0.00 0.01 0.00 81 1012.4
20240303073003 58 117 2.0 6.0 0.00 0.01 0.00 81 1013.0
20240303072738 58 139 2.0 6.0 0.00 0.01 0.00 81 1012.6
20240303071839 58 128 1.0 5.0 0.00 0.01 0.00 81 1012.6
20240303071508 58 126 1.0 4.0 0.00 0.01 0.00 81 1013.0
20240303070938 58 131 2.0 4.0 0.00 0.01 0.00 81 1012.5
20240303070038 58 119 2.0 5.0 0.00 0.01 0.00 81 1012.6
20240303070011 58 126 1.0 5.0 0.00 0.01 0.00 81 1013.0
20240303065138 58 112 1.0 5.0 0.00 0.01 0.00 81 1012.5
20240303064504 57 75 0.0 4.0 0.00 0.01 0.00 82 1013.0
20240303064238 58 114 1.0 4.0 0.00 0.01 0.00 82 1012.5
20240303063338 58 131 1.0 4.0 0.00 0.01 0.00 81 1012.6
20240303063009 58 138 0.0 4.0 0.00 0.01 0.00 81 1013.0
20240303062438 58 108 1.0 4.0 0.00 0.01 0.00 81 1012.5
20240303061604 58 61 1.0 3.0 0.00 0.01 0.00 81 1013.0
20240303060638 59 77 1.0 3.0 0.00 0.01 0.00 80 1012.6
20240303060003 58 111 0.0 3.0 0.00 0.01 0.01 80 1013.1
20240303055738 59 50 1.0 3.0 0.00 0.01 0.01 80 1012.6
20240303054603 59 54 0.0 3.0 0.00 0.01 0.01 80 1013.2
20240303053938 59 73 1.0 2.0 0.00 0.01 0.01 79 1012.6
20240303053132 59 113 0.0 3.0 0.00 0.01 0.01 78 1013.1
20240303053038 60 81 1.0 3.0 0.00 0.01 0.01 78 1012.7
20240303052138 60 108 1.0 3.0 0.00 0.01 0.01 77 1012.7
20240303051605 60 104 0.0 3.0 0.00 0.01 0.01 77 1013.2
20240303051238 60 104 1.0 3.0 0.00 0.01 0.01 76 1012.8
20240303050338 60 89 1.0 2.0 0.00 0.01 0.01 77 1012.9
20240303050006 60 86 0.0 2.0 0.00 0.01 0.01 77 1013.3
20240303045438 61 68 1.0 2.0 0.00 0.01 0.01 76 1012.8
20240303044538 61 104 1.0 3.0 0.00 0.01 0.01 75 1012.9
20240303044505 61 84 0.0 3.0 0.00 0.01 0.01 75 1013.4
20240303043638 62 114 1.0 3.0 0.00 0.01 0.01 74 1012.9
20240303043004 62 120 1.0 3.0 0.00 0.01 0.01 73 1013.5
20240303042738 62 111 1.0 3.0 0.00 0.01 0.01 73 1013.0
20240303041838 62 108 1.0 2.0 0.00 0.01 0.01 73 1013.1
20240303041508 62 98 0.0 3.0 0.00 0.01 0.01 73 1013.6
20240303040003 62 101 0.0 4.0 0.00 0.01 0.01 72 1013.5
20240303034502 62 119 0.0 3.0 0.00 0.01 0.01 71 1013.5
20240303034238 63 120 1.0 4.0 0.00 0.01 0.01 70 1013.0
20240303033338 64 121 2.0 5.0 0.00 0.01 0.01 69 1012.9
20240303033007 64 107 1.0 5.0 0.00 0.01 0.01 68 1013.4
20240303032438 64 127 2.0 5.0 0.00 0.01 0.01 68 1012.8
20240303031538 65 139 2.0 5.0 0.00 0.01 0.01 66 1012.8
20240303031511 64 123 2.0 5.0 0.00 0.01 0.01 67 1013.3
20240303030638 65 135 3.0 4.0 0.00 0.01 0.01 65 1012.7
20240303030003 65 126 2.0 7.0 0.00 0.01 0.01 65 1013.2
20240303025738 65 137 3.0 7.0 0.00 0.01 0.01 65 1012.6
20240303024838 66 137 3.0 6.0 0.00 0.01 0.01 64 1012.6
20240303024517 65 150 3.0 7.0 0.00 0.01 0.01 64 1013.1
20240303023938 66 131 4.0 8.0 0.00 0.01 0.01 64 1012.7
20240303023103 66 153 4.0 9.0 0.00 0.01 0.01 63 1013.2
20240303023038 66 134 4.0 9.0 0.00 0.01 0.01 63 1012.7
20240303021603 66 159 4.0 8.0 0.00 0.01 0.01 63 1013.2
20240303021238 66 141 4.0 8.0 0.00 0.01 0.01 63 1012.7
20240303020338 67 135 5.0 9.0 0.00 0.01 0.01 62 1012.7
20240303020004 66 108 3.0 9.0 0.00 0.01 0.01 62 1013.3
20240303015438 67 136 4.0 9.0 0.00 0.01 0.01 61 1012.7
20240303014538 67 131 4.0 9.0 0.00 0.01 0.01 61 1012.7
20240303014506 67 146 4.0 9.0 0.00 0.01 0.01 61 1013.2
20240303013638 67 131 4.0 9.0 0.00 0.01 0.01 60 1012.7
20240303013004 67 138 4.0 9.0 0.00 0.01 0.01 59 1013.2
20240303012738 68 124 4.0 8.0 0.00 0.01 0.01 59 1012.8
20240303011838 68 130 5.0 9.0 0.00 0.01 0.01 59 1012.8
20240303011604 67 155 3.0 9.0 0.00 0.01 0.01 59 1013.3
20240303010103 68 130 4.0 8.0 0.00 0.01 0.01 57 1013.3
20240303010038 68 134 5.0 9.0 0.00 0.01 0.01 57 1012.7
20240303005138 69 132 5.0 9.0 0.00 0.01 0.01 57 1012.7
20240303004505 68 150 4.0 9.0 0.00 0.01 0.01 57 1013.3
20240303004238 69 131 4.0 8.0 0.00 0.01 0.01 57 1012.6
20240303003338 70 130 5.0 8.0 0.00 0.01 0.01 55 1012.5
20240303003106 69 126 4.0 8.0 0.00 0.01 0.01 55 1013.1
20240303002438 70 141 5.0 9.0 0.00 0.01 0.01 55 1012.5
20240303001538 70 146 5.0 8.0 0.00 0.01 0.01 55 1012.6
20240303001509 70 128 5.0 8.0 0.00 0.01 0.01 54 1013.2
20240303000638 71 142 5.0 9.0 0.00 0.01 0.01 54 1012.5
20240303000103 71 147 5.0 13.0 0.00 0.01 0.01 54 1013.0
20240302234838 71 141 7.0 13.0 0.00 0.01 0.01 54 1012.5
20240302234605 71 111 8.0 13.0 0.00 0.01 0.01 54 1013.0
20240302233938 72 136 5.0 11.0 0.00 0.01 0.01 54 1012.5
20240302233038 72 145 7.0 12.0 0.00 0.01 0.01 55 1012.5
20240302233003 71 152 7.0 14.0 0.00 0.01 0.01 55 1013.1
20240302232138 72 157 5.0 11.0 0.00 0.01 0.01 56 1012.5
20240302231509 72 140 4.0 11.0 0.00 0.01 0.01 55 1013.1
20240302231238 73 142 6.0 12.0 0.00 0.01 0.01 55 1012.4
20240302230338 73 147 8.0 12.0 0.00 0.01 0.01 55 1012.5
20240302230004 73 163 8.0 12.0 0.00 0.01 0.01 55 1013.1
20240302225438 74 154 6.0 13.0 0.00 0.01 0.01 54 1012.6
20240302224538 74 163 8.0 13.0 0.00 0.01 0.01 50 1012.6
20240302224504 74 175 8.0 12.0 0.00 0.01 0.01 50 1013.2
20240302223638 75 159 9.0 15.0 0.00 0.01 0.01 49 1012.4
20240302223004 75 151 8.0 14.0 0.00 0.01 0.01 47 1013.0
20240302222738 75 166 8.0 14.0 0.00 0.01 0.01 48 1012.5
20240302221838 75 164 7.0 12.0 0.00 0.01 0.01 46 1012.6
20240302221505 75 166 6.0 14.0 0.00 0.01 0.01 46 1013.2
20240302220938 76 169 8.0 14.0 0.00 0.01 0.01 45 1012.7
20240302220038 76 160 10.0 16.0 0.00 0.01 0.01 45 1012.7
20240302220003 75 183 8.0 16.0 0.00 0.01 0.01 44 1013.3
20240302215138 76 165 8.0 15.0 0.00 0.01 0.01 44 1012.6
20240302214634 76 186 5.0 12.0 0.00 0.01 0.01 46 1013.2
20240302214238 77 171 7.0 13.0 0.00 0.01 0.01 44 1012.6
20240302213338 77 169 7.0 12.0 0.00 0.01 0.01 43 1012.7
20240302213104 76 190 6.0 12.0 0.00 0.01 0.01 43 1013.3
20240302211604 76 172 8.0 17.0 0.00 0.01 0.01 42 1013.3
20240302211538 76 161 10.0 17.0 0.00 0.01 0.01 42 1012.7
20240302210638 76 158 10.0 16.0 0.00 0.01 0.01 44 1012.9
20240302210012 75 186 10.0 19.0 0.00 0.01 0.01 46 1013.6
20240302205738 75 147 10.0 19.0 0.00 0.01 0.01 46 1013.0
20240302204838 76 172 8.0 16.0 0.00 0.01 0.01 51 1013.0
20240302204507 75 202 9.0 16.0 0.00 0.01 0.01 50 1013.7
20240302203938 75 173 9.0 15.0 0.00 0.01 0.01 51 1013.2
20240302203104 74 178 6.0 14.0 0.00 0.01 0.01 53 1014.0
20240302203038 75 149 9.0 13.0 0.00 0.01 0.01 52 1013.4
20240302202138 74 154 9.0 17.0 0.00 0.01 0.01 52 1013.5
20240302201506 74 190 7.0 13.0 0.00 0.01 0.01 55 1014.3